Location: Unspecified
(45.4615°N, 74.0512°W)
Time: 22:25:00
(UTC-04:00)

ISS - Visible Passes

Search period start: 25 September 2018 00:00
Search period end: 05 October 2018 00:00
Orbit: 403 x 408 km, 51.6° (Epoch: 26 September)

Date Brightness Start Highest point End Pass type
(mag) Time Alt. Az. Time Alt. Az. Time Alt. Az.
25 Sep -3.8 19:37:55 10° SW 19:41:12 71° SSE 19:44:10 12° ENE visible
25 Sep -1.6 21:14:53 10° W 21:16:51 26° NW 21:16:51 26° NW visible
26 Sep -2.8 20:22:43 10° W 20:25:53 42° NNW 20:27:07 28° NNE visible
27 Sep -3.3 19:30:38 10° WSW 19:33:54 60° NNW 19:37:10 10° ENE visible
27 Sep -1.6 21:07:56 10° WNW 21:09:58 24° NNW 21:09:58 24° NNW visible
28 Sep -2.3 20:15:46 10° WNW 20:18:44 30° N 20:20:04 22° NNE visible
29 Sep -2.6 19:23:33 10° W 19:26:40 37° NNW 19:29:46 10° NE visible
29 Sep -1.6 21:00:51 10° WNW 21:02:47 23° NNW 21:02:47 23° NNW visible
30 Sep -2.1 20:08:43 10° WNW 20:11:36 27° N 20:12:48 21° NNE visible
01 Oct -2.2 19:16:31 10° WNW 19:19:27 29° N 19:22:24 10° NE visible
01 Oct -1.7 20:53:32 10° NW 20:55:27 25° NNW 20:55:27 25° NNW visible
02 Oct -2.3 20:01:31 10° NW 20:04:25 28° N 20:05:26 23° NE visible
02 Oct -0.2 21:38:02 10° WNW 21:38:05 10° WNW 21:38:05 10° WNW visible
03 Oct -2.2 19:09:23 10° WNW 19:12:15 26° N 19:15:07 10° ENE visible
03 Oct -2.0 20:46:04 10° NW 20:48:04 30° NNW 20:48:04 30° NNW visible
04 Oct -2.7 19:54:05 10° NW 19:57:09 34° NNE 19:58:03 28° NE visible
04 Oct -0.3 21:30:33 10° WNW 21:30:43 11° WNW 21:30:43 11° WNW visible
